This is the latest recevied weather packets stored in our database for station/object KM4NDN. If no packets are shown the sender has not sent any weather packets the latest 10 day(s).
| Time | Temp. | Humidity | Pressure | Rain* | Wind** | Luminosity | Snow |
|---|---|---|---|---|---|---|---|
| 1778091700 | 13.33° C | 46% | 1010.6 hPa | 0 mm | - | 381 W/m² | - |
| 1778091398 | 13.33° C | 44% | 1010.6 hPa | 0 mm | - | 754 W/m² | - |
| 1778091095 | 13.33° C | 47% | 1010.7 hPa | 0 mm | - | 465 W/m² | - |
| 1778090792 | 13.33° C | 44% | 1010.6 hPa | 0 mm | - | 767 W/m² | - |
| 1778090488 | 12.78° C | 48% | 1010.6 hPa | 0 mm | - | 893 W/m² | - |
| 1778090184 | 12.78° C | 46% | 1010.6 hPa | 0 mm | - | 617 W/m² | - |
| 1778089880 | 12.78° C | 42% | 1010.7 hPa | 0 mm | - | 564 W/m² | - |
| 1778089580 | 12.78° C | 45% | 1010.9 hPa | 0 mm | - | 626 W/m² | - |
| 1778089276 | 12.78° C | 46% | 1010.9 hPa | 0 mm | - | 549 W/m² | - |
| 1778088974 | 12.78° C | 43% | 1010.8 hPa | 0 mm | - | 522 W/m² | - |
| 1778088670 | 13.33° C | 48% | 1010.9 hPa | 0 mm | - | 474 W/m² | - |
| 1778088368 | 12.78° C | 47% | 1010.7 hPa | 0 mm | - | 422 W/m² | - |
| 1778088064 | 12.78° C | 50% | 1010.8 hPa | 0 mm | - | 492 W/m² | - |
| 1778087761 | 12.78° C | 49% | 1010.7 hPa | 0 mm | - | 847 W/m² | - |
| 1778087458 | 12.78° C | 51% | 1010.9 hPa | 0 mm | - | 813 W/m² | - |
| 1778087150 | 12.78° C | 50% | 1011 hPa | 0 mm | - | 901 W/m² | - |
| 1778086847 | 12.78° C | 53% | 1010.9 hPa | 0 mm | - | 862 W/m² | - |
| 1778086546 | 12.78° C | 50% | 1010.9 hPa | 0 mm | - | 817 W/m² | - |
| 1778086241 | 12.78° C | 49% | 1010.9 hPa | 0 mm | - | 835 W/m² | - |
| 1778085939 | 12.22° C | 48% | 1011 hPa | 0 mm | - | 820 W/m² | - |
| 1778085636 | 12.22° C | 53% | 1010.9 hPa | 0 mm | - | 865 W/m² | - |
| 1778085332 | 12.78° C | 47% | 1010.9 hPa | 0 mm | - | 624 W/m² | - |
| 1778085028 | 12.22° C | 45% | 1011 hPa | 0 mm | - | 857 W/m² | - |
| 1778084724 | 12.78° C | 44% | 1011 hPa | 0 mm | - | 465 W/m² | - |
| 1778084421 | 12.22° C | 50% | 1011 hPa | 0 mm | - | 886 W/m² | - |
* Rain latest hour (hover to see other rain measurements)
** Current wind speed in m/s (hover to see current wind gust speed)